Location: Litvinovka
(48.6667°N, 34.3500°E)
Time: 16:25:08
(UTC+00:00)

ATLAS 2AS CENTAUR R/B - Pass Details

Date: 18 September 2020
Orbit: 939 x 1273 km, 63.7° (Epoch: 19 October)

Event Time Altitude Azimuth Distance (km) Brightness Sun altitude
Rises 17:25:44 0° 170° (S) 4,182 5.5 -16.5°
Reaches altitude 10° 17:29:07 10° 157° (SSE) 3,243 4.8 -17.0°
Enters shadow 17:29:07 10° 157° (SSE) 3,241 4.8 -17.0°
Exits shadow 17:37:33 21° 83° (E) 2,553 4.2 -18.3°
Drops below altitude 10° 17:41:00 10° 59° (ENE) 3,256 4.9 -18.8°
Sets 17:44:22 0° 47° (NE) 4,203 5.6 -19.3°
